TimePST,TemperatureF,Dew PointF,Humidity,Sea Level PressureIn,VisibilityMPH,Wind Direction,Wind SpeedMPH,Gust SpeedMPH,PrecipitationIn,Events,Conditions,WindDirDegrees,DateUTC
12:15 AM,50.0,39.2,66,29.98,10.0,ENE,5.8,20.7,N/A,,Unknown,60,2012-11-28 08:15:00
12:35 AM,50.0,39.2,66,29.97,10.0,ENE,3.5,-,N/A,,Unknown,70,2012-11-28 08:35:00
12:55 AM,50.0,39.2,66,29.96,10.0,NE,5.8,-,N/A,,Unknown,50,2012-11-28 08:55:00
1:15 AM,50.0,39.2,66,29.95,10.0,NE,4.6,-,N/A,,Unknown,50,2012-11-28 09:15:00
1:35 AM,50.0,39.2,66,29.94,10.0,ENE,3.5,-,N/A,,Unknown,60,2012-11-28 09:35:00
1:55 AM,50.0,39.2,66,29.93,10.0,ENE,5.8,-,N/A,,Unknown,60,2012-11-28 09:55:00
2:15 AM,50.0,39.2,66,29.92,10.0,NE,5.8,16.1,N/A,,Unknown,50,2012-11-28 10:15:00
2:35 AM,51.8,39.2,62,29.91,10.0,ENE,4.6,-,N/A,,Unknown,60,2012-11-28 10:35:00
2:55 AM,50.0,39.2,66,29.90,10.0,East,3.5,-,N/A,,Unknown,90,2012-11-28 10:55:00
3:15 AM,50.0,39.2,66,29.90,10.0,NNE,9.2,-,N/A,,Unknown,30,2012-11-28 11:15:00
3:35 AM,50.0,39.2,66,29.90,10.0,NE,4.6,-,N/A,,Unknown,50,2012-11-28 11:35:00
3:55 AM,50.0,39.2,66,29.89,10.0,Calm,Calm,-,N/A,,Unknown,0,2012-11-28 11:55:00
4:15 AM,50.0,39.2,66,29.87,10.0,NE,5.8,-,N/A,,Unknown,40,2012-11-28 12:15:00
4:35 AM,50.0,39.2,66,29.87,10.0,NE,6.9,-,N/A,,Unknown,50,2012-11-28 12:35:00
4:55 AM,50.0,39.2,66,29.86,10.0,ENE,5.8,-,N/A,,Unknown,60,2012-11-28 12:55:00
5:15 AM,50.0,39.2,66,29.84,10.0,NE,5.8,-,N/A,,Unknown,40,2012-11-28 13:15:00
5:35 AM,50.0,39.2,66,29.84,10.0,NE,3.5,-,N/A,,Unknown,50,2012-11-28 13:35:00
5:55 AM,50.0,39.2,66,29.85,10.0,ENE,3.5,-,N/A,,Unknown,60,2012-11-28 13:55:00
6:15 AM,48.2,44.6,87,29.85,5.0,NE,5.8,-,0.01,,Unknown,40,2012-11-28 14:15:00
6:35 AM,46.4,44.6,93,29.84,5.0,NE,8.1,-,0.02,,Unknown,40,2012-11-28 14:35:00
6:55 AM,46.4,42.8,87,29.84,10.0,NNE,9.2,-,0.03,,Unknown,30,2012-11-28 14:55:00
7:15 AM,46.4,44.6,93,29.83,7.0,NE,6.9,-,0.01,,Unknown,40,2012-11-28 15:15:00
7:35 AM,46.4,44.6,93,29.83,6.0,NNE,6.9,-,0.05,,Unknown,30,2012-11-28 15:35:00
7:55 AM,46.4,44.6,93,29.82,5.0,NE,4.6,-,0.08,,Unknown,50,2012-11-28 15:55:00
8:15 AM,46.4,44.6,93,29.82,4.0,NE,6.9,-,0.03,,Unknown,40,2012-11-28 16:15:00
8:35 AM,46.4,44.6,93,29.83,3.0,NE,4.6,-,0.07,,Unknown,40,2012-11-28 16:35:00
8:55 AM,46.4,44.6,93,29.83,3.0,NE,3.5,-,0.11,,Unknown,50,2012-11-28 16:55:00
9:15 AM,46.4,44.6,93,29.82,3.0,Calm,Calm,-,0.03,,Unknown,0,2012-11-28 17:15:00
9:35 AM,46.4,44.6,93,29.83,2.5,ENE,3.5,-,0.07,,Unknown,60,2012-11-28 17:35:00
9:55 AM,46.4,44.6,93,29.83,3.0,ENE,3.5,-,0.12,,Unknown,70,2012-11-28 17:55:00
10:15 AM,46.4,44.6,93,29.84,3.0,NE,3.5,-,0.03,,Unknown,40,2012-11-28 18:15:00
10:35 AM,46.4,44.6,93,29.85,5.0,NNE,3.5,-,0.05,,Unknown,20,2012-11-28 18:35:00
10:55 AM,46.4,44.6,93,29.87,3.0,Calm,Calm,-,0.09,,Unknown,0,2012-11-28 18:55:00
11:15 AM,46.4,44.6,93,29.85,4.0,Calm,Calm,-,0.03,,Unknown,0,2012-11-28 19:15:00
11:35 AM,46.4,44.6,93,29.83,6.0,Calm,Calm,-,0.04,,Unknown,0,2012-11-28 19:35:00
11:55 AM,46.4,44.6,93,29.83,5.0,Calm,Calm,-,0.05,,Unknown,0,2012-11-28 19:55:00
12:15 PM,46.4,44.6,93,29.84,4.0,Calm,Calm,-,N/A,,Unknown,0,2012-11-28 20:15:00
12:35 PM,48.2,44.6,87,29.84,10.0,Calm,Calm,-,0.01,,Unknown,0,2012-11-28 20:35:00
12:55 PM,48.2,44.6,87,29.84,6.0,Calm,Calm,-,0.01,,Unknown,0,2012-11-28 20:55:00
1:15 PM,48.2,46.4,93,29.85,9.0,Calm,Calm,-,N/A,,Unknown,0,2012-11-28 21:15:00
1:35 PM,48.2,44.6,87,29.85,10.0,Calm,Calm,-,N/A,,Unknown,0,2012-11-28 21:35:00
1:55 PM,48.2,44.6,87,29.85,10.0,Calm,Calm,-,N/A,,Unknown,0,2012-11-28 21:55:00
2:15 PM,48.2,42.8,82,29.85,10.0,Calm,Calm,-,N/A,,Unknown,0,2012-11-28 22:15:00
2:35 PM,48.2,44.6,87,29.85,10.0,Calm,Calm,-,N/A,,Unknown,0,2012-11-28 22:35:00
2:55 PM,48.2,44.6,87,29.86,10.0,Calm,Calm,-,N/A,,Unknown,0,2012-11-28 22:55:00
3:15 PM,48.2,44.6,87,29.87,5.0,Calm,Calm,-,N/A,,Unknown,0,2012-11-28 23:15:00
3:35 PM,48.2,46.4,93,29.87,10.0,Calm,Calm,-,N/A,,Unknown,0,2012-11-28 23:35:00
3:55 PM,48.2,46.4,93,29.87,10.0,Calm,Calm,-,N/A,,Unknown,0,2012-11-28 23:55:00
4:15 PM,48.2,44.6,87,29.88,10.0,Calm,Calm,-,N/A,,Unknown,0,2012-11-29 00:15:00
4:35 PM,48.2,44.6,87,29.89,5.0,Calm,Calm,-,0.01,,Unknown,0,2012-11-29 00:35:00
4:55 PM,46.4,44.6,93,29.91,3.0,Calm,Calm,-,0.03,,Unknown,0,2012-11-29 00:55:00
5:15 PM,46.4,44.6,93,29.92,8.0,Calm,Calm,-,N/A,,Unknown,0,2012-11-29 01:15:00
5:35 PM,44.6,44.6,100,29.92,3.0,Calm,Calm,-,N/A,,Unknown,0,2012-11-29 01:35:00
5:55 PM,44.6,44.6,100,29.93,3.0,Calm,Calm,-,N/A,,Unknown,0,2012-11-29 01:55:00
6:15 PM,44.6,42.8,93,29.93,8.0,Calm,Calm,-,N/A,,Unknown,0,2012-11-29 02:15:00
6:35 PM,44.6,42.8,93,29.93,2.5,Calm,Calm,-,N/A,,Unknown,0,2012-11-29 02:35:00
6:55 PM,42.8,42.8,100,29.94,3.0,Calm,Calm,-,N/A,,Unknown,0,2012-11-29 02:55:00
7:15 PM,42.8,41.0,93,29.94,3.0,Calm,Calm,-,N/A,,Unknown,0,2012-11-29 03:15:00
7:35 PM,42.8,41.0,93,29.95,5.0,Calm,Calm,-,N/A,,Unknown,0,2012-11-29 03:35:00
7:55 PM,42.8,41.0,93,29.94,4.0,Calm,Calm,-,N/A,,Unknown,0,2012-11-29 03:55:00
8:15 PM,42.8,41.0,93,29.95,7.0,Calm,Calm,-,N/A,,Unknown,0,2012-11-29 04:15:00
8:35 PM,44.6,42.8,93,29.96,5.0,Calm,Calm,-,N/A,,Unknown,0,2012-11-29 04:35:00
8:55 PM,44.6,42.8,93,29.96,3.0,Calm,Calm,-,N/A,,Unknown,0,2012-11-29 04:55:00
9:15 PM,44.6,42.8,93,29.97,2.5,Calm,Calm,-,N/A,,Unknown,0,2012-11-29 05:15:00
9:35 PM,44.6,42.8,93,29.97,2.5,NE,3.5,-,N/A,,Unknown,40,2012-11-29 05:35:00
9:55 PM,44.6,42.8,93,29.98,1.2,Calm,Calm,-,N/A,,Unknown,0,2012-11-29 05:55:00
10:15 PM,44.6,42.8,93,29.98,1.2,NE,4.6,-,N/A,,Unknown,40,2012-11-29 06:15:00
10:35 PM,44.6,42.8,93,29.97,1.8,ENE,4.6,-,N/A,,Unknown,60,2012-11-29 06:35:00
10:55 PM,44.6,42.8,93,29.97,4.0,NE,4.6,-,N/A,,Unknown,40,2012-11-29 06:55:00
11:15 PM,44.6,42.8,93,29.97,3.0,NE,3.5,-,N/A,,Unknown,40,2012-11-29 07:15:00
11:35 PM,44.6,42.8,93,29.97,5.0,NNE,5.8,-,N/A,,Unknown,30,2012-11-29 07:35:00
11:55 PM,44.6,42.8,93,29.96,10.0,NE,5.8,-,N/A,,Unknown,40,2012-11-29 07:55:00